TimeAKST,TemperatureF,Dew PointF,Humidity,Sea Level PressureIn,VisibilityMPH,Wind Direction,Wind SpeedMPH,Gust SpeedMPH,PrecipitationIn,Events,Conditions,WindDirDegrees,DateUTC
12:53 AM,-2.0,-5.1,87,30.24,4.0,Calm,Calm,-,N/A,Snow,Light Snow,0,2013-01-22 09:53:00
1:53 AM,-2.0,-5.1,87,30.23,3.0,East,3.5,-,N/A,Snow,Light Snow,100,2013-01-22 10:53:00
3:53 AM,-0.9,-4.0,87,30.19,2.0,Calm,Calm,-,N/A,Fog,Overcast,0,2013-01-22 12:53:00
4:53 AM,-0.9,-2.9,91,30.18,1.8,Calm,Calm,-,N/A,Fog,Overcast,0,2013-01-22 13:53:00
5:53 AM,-0.0,-2.0,91,30.16,1.8,Calm,Calm,-,N/A,Snow,Light Snow,0,2013-01-22 14:53:00
6:53 AM,-0.0,-2.9,88,30.14,1.8,Calm,Calm,-,N/A,Snow,Light Snow,0,2013-01-22 15:53:00
7:53 AM,-0.0,-2.0,91,30.13,1.8,Calm,Calm,-,N/A,Snow,Light Snow,0,2013-01-22 16:53:00
8:17 AM,-0.4,-2.2,92,29.93,2.0,Calm,Calm,-,N/A,Snow,Light Snow,0,2013-01-22 17:17:00
8:53 AM,-0.0,-2.0,91,30.13,2.0,Calm,Calm,-,N/A,Snow,Light Snow,0,2013-01-22 17:53:00
9:18 AM,-0.4,-2.2,92,29.92,1.8,Calm,Calm,-,N/A,Snow,Light Snow,0,2013-01-22 18:18:00
9:53 AM,-0.0,-2.0,91,30.11,1.5,Calm,Calm,-,N/A,Snow,Light Snow,0,2013-01-22 18:53:00
10:53 AM,1.0,-2.0,87,30.10,1.0,Calm,Calm,-,N/A,Fog-Snow,Light Snow,0,2013-01-22 19:53:00
11:16 AM,1.4,-2.2,85,29.90,2.0,Calm,Calm,-,N/A,Fog-Snow,Light Snow,0,2013-01-22 20:16:00
11:53 AM,1.0,-2.0,87,30.08,1.2,Calm,Calm,-,N/A,Fog-Snow,Light Snow,0,2013-01-22 20:53:00
12:53 PM,1.9,-0.9,88,30.06,1.2,Calm,Calm,-,N/A,Snow,Light Snow,0,2013-01-22 21:53:00
1:53 PM,1.9,-0.9,88,30.04,1.0,Calm,Calm,-,N/A,Snow,Light Snow,0,2013-01-22 22:53:00
2:53 PM,3.0,-0.9,84,30.02,0.8,Calm,Calm,-,N/A,Snow,Light Snow,0,2013-01-22 23:53:00
3:29 PM,3.2,-0.4,85,29.82,1.2,Calm,Calm,-,N/A,Snow,Light Snow,0,2013-01-23 00:29:00
3:53 PM,3.0,-0.9,84,30.00,1.0,Calm,Calm,-,N/A,Snow,Light Snow,0,2013-01-23 00:53:00
4:53 PM,3.0,-0.0,87,29.98,1.5,Calm,Calm,-,N/A,Snow,Light Snow,0,2013-01-23 01:53:00
5:53 PM,3.9,-0.0,84,29.96,2.0,Calm,Calm,-,N/A,Snow,Light Snow,0,2013-01-23 02:53:00
6:53 PM,3.9,-0.0,84,29.94,4.0,Calm,Calm,-,N/A,Snow,Light Snow,0,2013-01-23 03:53:00
7:53 PM,3.9,-0.0,84,29.93,2.5,Calm,Calm,-,N/A,Snow,Light Snow,0,2013-01-23 04:53:00
8:53 PM,3.9,1.0,88,29.91,2.0,Calm,Calm,-,N/A,Snow,Light Snow,0,2013-01-23 05:53:00
9:53 PM,3.9,1.0,88,29.89,2.0,Calm,Calm,-,N/A,Snow,Light Snow,0,2013-01-23 06:53:00
10:53 PM,3.9,1.9,91,29.88,2.5,Calm,Calm,-,N/A,Snow,Light Snow,0,2013-01-23 07:53:00
11:53 PM,3.9,1.9,91,29.86,2.5,Calm,Calm,-,N/A,Snow,Light Snow,0,2013-01-23 08:53:00